Theta_e
350 358 364 362 361 362 363 364 363 363 361 360 359 359 358 359 359 360 360 361 361 360 360 359 358 359 358 357 357 358 357 357 356 355 357 358 358 358 357 355 360 353 357
351 357 364 363 360 360 360 360 360 362 362 361 361 359 359 359 359 360 360 359 361 360 360 360 360 359 358 358 357 358 358 358 359 361 360 359 359 357 360 358 361 356 358
350 357 358 363 360 359 360 364 363 362 362 361 361 361 361 360 358 361 361 361 361 361 360 360 361 360 359 358 358 358 359 358 359 360 364 350 350 357 360 361 360 358 359
350 354 355 362 361 360 360 361 361 361 361 361 362 361 359 359 360 360 361 361 360 359 360 361 360 360 359 359 359 360 360 357 357 357 357 350 352 358 358 360 360 359 359
349 352 357 363 361 359 359 360 359 359 359 359 360 361 359 359 358 361 361 360 360 360 358 361 359 359 360 359 361 361 360 357 360 359 351 355 354 359 361 357 358 359 360
348 352 360 361 360 360 359 359 359 358 357 358 359 361 360 358 358 358 360 360 359 359 359 360 360 361 361 361 360 361 359 357 360 350 350 356 355 361 359 361 358 358 358
350 354 357 362 360 360 360 359 359 358 357 356 357 359 360 359 358 358 359 359 359 361 361 359 359 361 362 361 361 360 356 357 359 351 347 354 357 361 360 357 359 360 361
348 350 356 360 360 360 360 360 359 359 357 355 355 356 359 359 358 357 357 360 358 357 360 361 360 360 359 360 360 358 356 359 352 349 348 355 361 361 362 358 358 359 358
346 350 352 354 359 360 361 361 360 359 358 356 354 352 355 356 358 358 357 357 359 358 357 358 359 360 359 360 359 355 356 359 357 349 346 351 362 359 358 357 358 360 360
347 349 349 353 353 357 360 362 361 359 359 357 356 354 352 353 355 357 357 356 357 357 358 357 357 359 359 359 358 357 356 359 355 351 349 350 363 362 362 358 354 357 360
345 349 349 349 354 358 355 360 361 360 359 357 357 357 358 356 355 358 358 357 357 356 357 356 357 357 357 359 360 359 358 352 349 350 351 358 360 357 362 364 360 357 360
342 347 348 349 351 353 352 361 362 361 360 361 358 356 355 356 360 354 355 357 357 357 359 359 358 357 357 353 355 359 353 351 348 348 353 361 360 358 357 361 363 361 358
343 346 348 353 353 351 358 355 354 357 359 358 357 356 359 360 358 355 355 356 357 358 355 358 357 355 354 355 353 353 352 348 350 348 353 362 360 359 361 360 363 364 362
344 347 349 352 353 353 356 349 353 353 356 353 355 357 359 362 356 360 355 357 359 357 356 356 356 361 356 358 354 352 352 351 350 351 354 362 361 358 360 362 363 363 363
344 347 349 353 356 355 356 354 352 354 354 356 355 356 357 355 361 358 355 355 359 358 360 360 359 360 358 357 355 354 353 351 352 351 354 363 362 361 358 361 363 362 361
346 348 350 354 358 357 356 356 354 353 356 359 361 359 357 357 358 354 355 356 363 361 359 360 360 361 361 358 358 357 356 353 353 361 355 358 363 362 360 360 363 363 362
348 352 351 354 356 357 356 357 355 356 357 356 361 355 354 352 355 356 354 355 357 361 360 359 361 360 357 360 358 357 356 357 354 355 359 356 359 363 362 364 364 365 366
349 353 355 351 353 355 354 356 355 363 357 359 358 355 355 357 361 359 355 355 359 355 356 357 364 365 362 364 356 358 356 355 357 356 356 356 355 356 363 365 365 365 366
356 355 356 354 353 355 357 356 356 360 358 358 355 356 354 357 359 363 360 360 363 358 358 366 366 363 355 357 355 355 357 358 358 352 354 355 356 354 357 363 364 365 366
358 356 356 355 356 358 358 359 358 356 357 358 360 357 362 362 363 362 360 360 360 363 355 360 361 359 356 354 351 349 354 357 355 356 357 355 355 357 356 361 362 360 363
355 357 357 356 359 358 357 356 354 353 355 356 357 364 364 362 363 366 358 364 362 361 360 359 356 359 354 357 357 352 354 355 356 359 359 356 357 355 356 356 360 358 359
351 356 358 357 360 360 358 358 356 354 355 359 361 364 361 365 363 363 367 362 362 355 363 361 361 352 349 350 347 351 343 347 352 355 357 355 354 357 358 360 360 363 365
350 354 358 361 361 363 363 360 360 361 359 355 355 356 359 361 362 364 365 366 365 363 355 360 360 361 347 349 355 346 338 342 345 350 355 354 358 356 356 361 360 363 365
350 355 358 362 363 363 366 365 364 358 355 363 358 361 363 363 362 362 364 366 372 366 368 363 359 359 366 351 352 350 354 351 338 341 349 349 356 355 357 357 355 360 361
351 354 358 363 364 365 365 367 360 360 355 357 357 360 368 365 366 363 365 366 370 370 368 367 366 368 368 355 352 353 356 351 355 343 338 344 356 349 351 355 357 356 360
352 353 356 361 362 363 363 363 362 358 357 353 361 364 357 359 359 363 363 368 368 366 369 370 364 363 362 365 360 362 353 346 344 347 344 341 344 349 356 349 351 358 361
Wind_Speed
16 16 12 13 13 13 13 13 13 12 12 12 11 10 9 8 9 10 11 12 14 14 16 15 14 14 16 16 15 15 15 16 17 16 17 15 13 12 11 9 16 15 13
20 17 13 13 13 12 12 12 12 13 13 11 11 9 8 7 8 7 9 10 11 13 13 13 13 13 14 14 14 14 14 13 15 18 19 16 14 13 14 13 17 14 14
19 18 15 14 12 11 11 12 12 13 12 11 11 10 9 8 7 8 8 9 10 12 12 12 12 14 13 13 12 12 11 9 10 15 20 14 14 13 14 16 15 14 14
19 17 16 13 12 10 10 11 11 12 11 10 10 9 7 8 9 8 9 9 10 11 10 12 12 13 12 12 11 10 8 4 4 6 7 14 14 13 13 13 14 13 14
17 17 17 13 12 11 10 10 10 10 10 9 9 9 7 7 7 8 9 8 9 10 9 10 11 12 11 11 10 11 6 4 8 9 9 10 12 10 11 13 13 10 12
17 21 17 13 12 11 10 9 9 9 9 9 9 10 8 6 7 6 7 8 9 9 9 10 9 10 10 10 9 9 5 6 9 4 10 11 14 12 9 11 14 13 13
17 18 16 12 11 10 9 8 8 8 8 8 8 9 10 7 7 6 8 6 7 7 9 10 9 9 10 10 9 7 4 6 12 4 7 10 12 10 9 10 12 10 10
18 17 14 12 10 9 8 8 7 6 6 6 6 7 7 8 7 5 6 7 5 5 7 8 7 10 8 8 7 5 3 8 5 1 3 13 13 9 8 9 10 9 9
15 16 12 13 10 9 8 6 6 5 5 4 4 4 3 5 6 5 4 5 6 6 4 7 6 7 8 6 6 4 3 9 10 6 8 8 13 10 8 7 8 8 8
10 11 14 13 12 12 14 12 6 4 3 2 2 0 2 3 6 6 5 4 5 4 6 5 5 7 6 7 6 5 4 11 9 7 6 10 15 9 9 9 8 8 7
8 6 10 14 10 3 10 11 10 7 5 3 1 2 7 5 8 7 8 6 3 3 4 5 5 5 6 8 9 8 7 9 7 5 3 17 15 11 9 10 10 9 8
10 9 6 7 10 8 4 9 5 9 6 3 3 2 5 2 4 2 4 9 7 5 8 9 9 8 9 10 9 12 8 10 7 6 7 17 13 11 11 10 11 11 10
11 11 7 2 4 7 6 2 5 6 6 5 4 5 3 3 5 3 3 4 7 10 9 11 10 9 10 5 5 8 7 9 4 6 10 16 14 11 12 13 11 13 13
11 11 10 11 6 6 1 5 4 6 4 2 0 4 4 2 3 4 2 2 3 2 2 7 2 3 6 6 8 8 7 5 5 3 9 17 16 13 13 14 14 13 14
11 10 6 10 6 5 3 1 3 0 4 5 4 2 6 4 4 4 4 4 1 1 2 2 3 2 4 7 8 10 9 9 5 5 4 13 14 14 13 13 15 15 13
7 8 11 7 9 8 5 3 4 3 7 5 2 3 4 2 2 2 3 5 3 4 5 1 3 3 5 7 7 8 6 10 8 2 3 7 15 15 14 14 15 15 15
8 9 10 9 11 8 7 6 7 4 4 7 4 5 3 3 4 4 3 5 3 3 3 4 4 5 5 4 7 9 7 7 10 6 2 4 11 17 18 19 18 16 15
14 6 6 9 11 11 8 7 4 3 9 8 6 5 7 9 9 7 5 6 2 0 4 5 4 1 4 4 5 5 4 8 9 9 9 7 5 7 16 19 19 18 18
12 8 8 7 8 10 7 6 7 6 6 4 8 9 11 10 10 6 8 8 7 7 4 3 5 0 2 4 3 6 6 4 5 7 8 10 10 9 8 19 21 19 19
12 10 8 9 8 6 6 6 5 4 4 4 5 2 12 6 10 6 7 5 5 4 3 3 3 4 4 4 4 8 7 7 8 9 5 5 7 7 9 11 12 13 20
15 10 11 10 9 8 7 7 5 5 2 3 4 6 5 4 5 3 9 7 6 4 7 5 7 6 6 7 2 6 7 8 7 5 6 8 7 8 7 8 3 7 9
12 12 11 10 10 9 7 6 4 6 5 3 3 5 4 5 6 8 7 6 5 5 5 5 5 7 7 5 4 4 6 3 2 2 5 8 10 6 7 8 10 11 6
10 11 11 10 9 9 9 5 5 6 4 5 6 7 9 7 6 7 7 8 4 5 7 5 7 8 7 6 5 4 6 1 5 8 6 8 6 8 9 8 8 6 10
9 12 9 9 9 9 9 8 7 4 4 1 6 4 1 4 6 8 8 8 7 7 6 6 8 8 4 8 7 6 2 7 8 5 5 6 3 9 7 7 8 7 10
8 10 10 7 9 8 9 9 6 8 6 5 5 6 6 7 9 9 9 9 7 8 9 8 8 5 4 7 9 3 7 4 5 9 10 4 6 6 12 7 6 5 11
7 7 8 8 8 8 7 7 6 3 4 5 3 3 8 5 5 7 2 4 8 9 7 6 8 8 8 8 6 5 5 5 6 6 5 8 12 6 9 11 7 6 5
Wind_Direction
128 123 128 117 105 102 96 92 93 94 103 109 110 106 94 79 78 75 82 87 89 90 91 103 100 91 92 100 97 95 93 96 104 108 108 101 107 103 110 126 142 101 102
122 129 134 119 112 108 105 104 97 93 93 99 107 106 104 97 79 75 89 94 91 97 99 102 102 102 101 98 99 97 100 110 118 123 117 104 96 85 83 89 75 100 100
131 125 136 120 118 113 105 93 101 100 95 91 93 92 84 72 79 80 103 94 104 99 105 106 106 109 111 108 105 103 105 128 141 153 151 103 93 97 92 89 93 100 92
127 143 134 116 121 117 107 99 92 89 86 85 86 81 81 85 79 81 106 111 102 107 103 111 110 111 109 109 111 110 116 134 195 179 251 104 99 102 96 97 102 105 102
141 130 117 134 129 124 114 106 99 95 91 85 79 71 77 77 82 87 90 101 93 113 107 102 115 116 114 114 108 108 119 203 231 257 147 110 105 106 115 121 127 120 97
141 114 132 137 135 129 123 115 109 102 93 86 76 71 75 72 79 88 83 98 109 119 118 112 119 126 120 116 123 124 151 244 288 131 82 81 85 117 117 102 99 103 107
125 120 138 143 140 138 133 130 123 114 100 85 75 68 68 71 83 77 81 93 99 106 130 124 125 123 125 133 125 126 166 250 273 72 133 120 107 124 124 116 114 117 117
119 136 132 144 146 147 147 144 135 122 110 96 79 70 67 76 83 80 92 100 97 90 101 130 140 132 135 134 128 128 225 284 261 48 47 82 117 133 129 128 127 130 126
119 131 149 156 149 160 167 158 152 144 125 103 94 82 77 94 100 99 95 99 111 114 113 124 131 146 151 151 159 165 248 284 284 115 184 132 133 148 148 147 148 145 148
119 130 149 151 161 185 160 170 165 167 140 143 117 75 263 217 161 155 147 127 118 121 125 129 147 152 169 174 189 204 243 276 263 159 236 110 137 158 165 166 166 169 167
143 181 166 151 154 175 155 150 167 181 189 160 241 210 284 214 200 155 135 134 153 170 165 160 167 176 198 207 207 209 234 246 216 228 84 136 142 171 187 193 180 187 193
168 163 235 144 141 165 191 155 155 184 134 146 227 222 253 39 24 306 137 159 182 196 196 190 191 202 219 225 198 208 226 247 273 221 126 134 144 184 197 201 198 195 200
173 157 195 273 138 168 105 294 171 124 145 162 204 263 269 262 185 220 175 198 183 194 215 196 194 218 221 303 151 222 222 238 231 232 119 135 151 182 208 213 210 205 207
170 160 189 157 171 282 158 190 162 141 143 99 39 278 279 338 47 297 125 203 239 50 298 211 227 305 283 285 281 258 282 247 258 254 144 156 162 182 205 220 219 221 220
165 163 153 152 179 196 233 262 311 17 85 133 201 2 350 37 342 318 24 282 294 170 169 241 233 211 258 261 252 262 261 264 260 275 106 173 170 184 204 219 223 226 231
160 157 154 177 165 199 208 239 282 203 139 129 140 42 21 355 280 277 284 288 197 192 208 316 301 252 242 248 249 270 251 274 244 243 272 174 184 184 197 214 224 224 229
180 173 151 179 173 193 190 190 216 246 84 142 160 164 129 267 264 245 246 282 351 58 304 243 216 217 245 253 255 223 222 246 242 186 249 249 191 191 198 201 214 224 228
120 152 189 188 178 176 189 177 246 130 206 147 165 179 209 226 234 200 219 250 348 349 280 289 182 202 258 216 276 221 277 284 200 209 195 220 225 195 202 208 209 214 220
128 160 194 189 193 160 175 205 228 195 209 182 182 187 193 216 223 181 229 205 204 226 209 307 341 46 306 258 220 250 244 262 300 271 241 221 225 224 186 195 205 213 213
146 167 207 183 183 184 165 216 254 184 233 173 220 247 179 205 188 207 202 230 200 220 261 191 185 289 231 303 302 308 275 220 244 228 218 235 263 210 237 176 198 210 214
152 170 194 198 171 191 195 192 213 250 288 205 206 172 150 234 227 245 265 184 211 308 178 241 255 225 280 195 210 258 253 231 232 232 221 224 230 231 225 224 192 212 205
170 174 194 194 178 206 194 221 227 224 209 187 206 198 234 184 229 226 252 275 192 263 229 235 270 305 278 244 266 256 299 199 190 293 197 209 224 228 232 205 212 218 244
173 175 182 192 187 209 246 211 195 281 261 249 226 221 200 222 239 237 273 276 291 248 266 248 219 241 280 300 246 290 286 277 294 217 206 233 237 226 213 213 222 199 231
181 170 179 192 205 198 205 236 227 266 262 359 276 204 27 290 273 275 259 241 266 275 283 249 231 248 329 298 320 288 314 344 295 311 257 251 52 326 229 225 246 191 223
175 148 172 190 201 228 207 261 225 223 237 238 305 13 293 272 258 258 264 270 248 252 241 246 285 292 257 258 270 352 307 287 270 278 283 291 92 181 283 237 233 218 201
160 176 181 162 199 209 216 217 248 289 292 299 261 310 266 242 200 198 298 285 279 280 304 296 282 259 247 259 282 286 252 255 278 254 279 283 298 199 195 215 236 192 211